GEFSCGP_con_prob3kmehi_276.txt.gz
EHI
0 0 0 0 0 0 0 0 0 0 0 0 0 0 0 1 2 2 2 3 3 3 3 4 4 3 2 2 1 1 2 2 1 1 1 0 0 0 1 0 0 1 2 4
0 0 0 0 0 0 0 0 0 0 0 0 0 0 0 0 1 1 1 2 3 3 4 5 5 4 4 4 4 3 3 3 1 1 1 2 1 1 1 0 0 0 2 3
0 0 0 0 0 0 0 0 0 0 0 0 0 0 0 0 0 1 1 1 3 4 6 8 8 7 6 6 6 5 5 4 2 2 5 6 4 3 2 1 0 0 2 3
0 0 0 0 0 0 0 0 0 0 0 0 0 0 0 0 0 0 0 1 2 4 7 10 12 10 7 5 5 5 6 6 5 6 9 9 8 7 5 2 0 0 1 2
0 0 0 0 0 0 0 0 0 0 0 0 0 0 0 0 0 0 0 1 3 5 7 10 12 11 7 5 4 4 6 7 7 8 10 10 10 10 7 3 1 1 1 2
0 0 0 0 0 0 0 0 0 0 0 0 0 0 0 0 0 0 0 1 4 6 9 11 12 9 7 6 4 3 4 4 6 8 10 10 11 11 10 7 5 4 3 3
0 0 0 0 0 0 0 0 0 0 0 0 0 0 0 0 0 0 1 2 3 6 11 13 11 8 6 5 3 2 2 3 4 7 9 10 10 13 14 12 10 8 7 6
0 0 0 0 0 0 0 0 0 0 0 0 0 0 0 0 0 0 1 1 3 7 13 14 11 8 6 4 2 1 2 3 4 7 9 9 10 13 15 14 13 13 11 10
0 0 0 0 0 0 0 0 0 0 0 0 0 0 0 0 0 0 0 1 4 8 12 14 12 9 7 5 3 3 3 4 6 10 12 12 12 13 15 16 15 14 13 12
0 0 0 0 0 0 0 0 0 0 0 0 0 0 0 0 0 0 0 2 4 7 9 12 12 11 9 7 6 6 6 7 9 13 14 14 14 14 15 16 16 15 13 13
0 0 0 0 0 0 0 0 0 0 0 0 0 0 0 0 0 1 1 3 4 5 6 9 13 13 10 8 8 8 9 11 13 15 14 14 14 13 13 14 15 14 13 13
0 0 0 0 0 0 0 0 0 0 0 0 0 0 0 0 1 3 5 5 4 4 5 9 14 13 10 10 11 13 15 18 18 17 16 15 13 11 11 12 13 13 13 12
0 0 0 0 0 0 0 0 0 0 0 0 0 0 1 1 3 7 8 6 6 6 7 10 14 13 11 12 15 20 23 24 22 20 19 18 16 13 12 11 11 11 12 11
0 0 0 0 0 0 0 0 0 0 0 0 0 1 2 2 5 9 10 10 10 10 12 14 15 15 13 14 19 24 26 25 23 20 20 20 19 16 14 12 10 11 11 11
0 0 0 0 0 0 1 1 0 0 0 0 1 2 3 3 4 8 13 15 15 15 17 19 20 20 18 19 22 24 24 21 20 19 18 19 19 17 15 13 11 10 9 9
0 0 0 0 0 0 1 1 1 1 1 1 2 3 4 3 3 7 13 17 18 18 20 23 25 25 23 23 23 22 20 16 15 15 16 18 19 18 16 13 10 9 8 7
0 0 0 0 0 0 1 1 1 2 3 3 3 4 4 3 3 5 10 14 16 17 19 23 26 27 24 22 20 17 13 12 14 15 16 18 18 18 15 12 10 9 7 7
0 0 0 0 0 0 0 0 1 3 4 3 3 3 3 3 3 5 8 11 14 16 18 20 24 25 21 16 14 11 8 10 14 17 17 17 17 17 14 11 9 7 6 5
0 0 0 0 0 0 0 0 2 3 3 3 3 3 3 4 5 7 10 13 15 16 17 19 21 20 16 12 11 9 8 9 12 14 14 15 16 15 12 9 7 5 4 3
0 0 0 0 0 0 1 1 1 2 1 2 2 3 4 6 6 8 11 14 16 16 17 19 18 16 13 11 9 8 7 8 10 10 11 12 13 12 10 7 6 6 5 4
0 0 0 0 0 1 3 2 1 0 1 2 3 3 5 8 9 9 11 13 13 14 15 17 16 15 12 10 8 6 5 6 7 8 9 10 11 10 8 6 6 6 5 4
0 0 0 0 1 3 4 4 2 1 1 3 4 5 7 10 11 11 11 11 11 11 12 14 16 14 11 9 8 5 4 4 6 7 8 9 10 9 7 5 4 4 4 2
0 0 0 2 3 4 4 4 3 2 3 3 5 6 9 12 13 12 11 10 10 11 11 13 16 14 11 9 7 5 4 5 6 6 6 6 8 9 7 5 3 3 2 1
1 0 1 4 5 6 6 4 3 4 4 4 5 6 8 10 11 10 10 10 10 11 13 16 18 16 13 9 7 6 6 6 6 5 3 3 5 6 7 6 5 4 3 2
1 1 2 3 5 7 6 4 4 5 5 5 5 6 5 6 7 8 9 9 10 12 15 19 21 18 13 8 6 6 6 6 6 4 1 1 2 3 5 6 6 6 4 2
1 1 1 1 3 5 5 4 4 6 7 5 6 6 5 4 6 7 8 9 10 12 16 19 20 17 12 7 5 4 5 6 5 3 1 0 0 1 3 5 6 5 3 2

GEFSCGP_con_prob3kmehi_282.txt.gz
EHI
0 0 0 0 0 0 0 0 0 0 0 0 0 1 2 2 2 4 8 9 5 2 1 2 3 2 1 1 3 6 9 11 10 7 3 1 1 1 3 5 6 6 5 5
0 0 0 0 0 0 0 0 0 0 0 0 0 0 1 2 2 4 8 9 6 4 3 3 4 3 1 1 4 7 10 11 10 7 4 3 2 1 2 5 6 6 5 6
0 0 0 0 0 0 0 0 0 0 0 0 0 0 0 1 2 5 8 8 8 7 7 6 6 5 3 3 5 7 10 11 11 9 6 5 5 4 5 6 5 5 5 5
0 0 0 0 0 0 0 0 0 0 0 0 0 0 0 0 2 6 7 7 8 10 10 10 11 10 8 6 5 6 8 10 12 12 11 10 9 8 8 8 7 5 5 5
0 0 0 0 0 0 0 0 0 0 0 0 0 0 0 0 2 5 7 7 8 10 10 11 14 15 12 9 7 7 9 11 13 14 15 16 14 12 12 12 11 8 6 6
0 1 1 0 0 0 0 0 0 0 0 0 0 0 0 0 0 2 6 8 8 10 10 10 14 16 15 12 10 9 10 12 12 14 17 19 18 16 16 16 15 12 9 7
1 1 1 0 0 0 0 0 1 0 0 0 0 0 0 0 0 1 4 7 8 9 8 8 11 15 15 13 11 12 12 12 11 12 15 19 19 18 18 18 16 12 9 7
0 1 1 0 0 0 0 0 0 0 0 0 0 0 0 0 0 0 2 5 7 6 6 6 9 12 14 13 12 13 14 14 13 13 15 18 18 16 16 18 15 10 8 8
0 0 0 0 0 0 0 0 0 0 0 0 0 0 0 0 1 1 3 6 7 7 7 7 8 11 14 14 15 16 16 16 14 13 15 16 16 15 14 16 14 10 9 10
0 0 0 0 0 0 0 0 0 0 0 0 0 0 0 1 2 3 6 8 9 10 11 10 9 12 14 15 17 19 20 18 15 14 15 15 15 15 14 15 15 14 13 13
0 0 0 0 0 0 0 0 0 0 0 0 0 0 0 0 2 5 9 11 13 14 13 12 12 13 15 16 18 22 24 22 21 19 19 19 17 15 14 14 16 18 17 16
0 0 0 0 0 0 0 0 0 0 0 0 0 0 0 0 1 5 11 14 16 17 17 17 17 18 19 19 21 26 28 27 26 25 24 23 21 17 14 13 16 18 19 17
0 0 0 0 0 0 0 0 0 0 0 0 0 0 0 0 1 4 10 16 19 21 23 23 23 24 25 24 25 29 31 30 28 25 23 21 21 19 17 15 16 17 18 18
0 0 0 0 0 0 0 0 0 0 0 0 0 0 0 1 2 6 12 18 22 24 26 27 28 29 29 27 28 30 31 30 27 23 19 18 19 21 20 17 16 17 17 17
0 0 0 0 0 0 0 0 0 0 0 0 0 1 3 4 6 11 17 21 24 27 28 29 31 34 34 32 31 32 30 29 27 24 21 20 22 24 23 20 19 19 18 17
0 0 0 0 0 0 0 0 0 0 0 0 1 3 6 8 11 15 19 22 26 29 31 32 34 38 41 40 37 35 33 30 28 26 25 25 25 25 26 25 23 21 19 17
0 0 0 0 0 0 0 0 0 0 0 1 2 5 8 10 11 14 17 19 24 28 30 34 37 41 44 45 42 39 37 33 28 26 25 24 23 23 24 25 26 23 20 18
0 0 0 0 0 0 0 0 0 0 1 2 6 8 8 7 7 10 13 15 18 22 26 30 35 40 43 43 42 40 38 33 27 22 20 21 21 20 20 23 25 24 21 18
0 0 0 0 0 0 0 0 0 0 1 4 7 8 7 4 4 7 11 13 17 22 25 27 32 37 41 41 42 41 38 31 23 19 19 19 20 18 17 19 21 21 20 18
0 0 0 0 0 0 0 0 0 0 1 4 7 7 5 4 5 7 10 14 19 25 28 29 31 34 37 40 41 41 38 30 22 19 20 20 19 19 18 17 16 17 17 16
0 0 0 0 0 0 0 0 1 2 4 8 10 8 7 6 7 9 12 16 20 25 29 31 30 31 32 35 37 37 34 31 25 24 24 22 21 20 18 16 15 16 16 14
2 2 2 1 0 0 1 1 3 6 10 13 15 13 10 8 7 9 12 15 19 23 26 27 27 28 29 30 32 33 31 31 29 29 28 25 23 20 17 15 15 16 16 14
4 4 5 4 1 1 2 3 6 10 14 17 18 15 11 8 7 8 10 13 15 18 22 23 25 27 28 27 29 31 31 30 29 29 29 26 23 20 17 15 15 16 15 13
4 5 6 6 3 2 4 7 9 13 17 20 18 15 11 9 8 7 8 10 12 15 18 21 24 27 27 27 28 30 31 29 26 26 26 24 22 20 17 15 14 14 14 13
3 4 6 6 4 5 8 10 12 15 18 20 19 15 13 11 9 8 8 9 12 14 17 19 23 26 27 29 30 30 29 27 24 23 23 21 20 19 16 13 12 12 12 11
3 5 6 5 4 6 9 11 13 15 17 19 18 16 14 12 11 9 8 10 12 15 17 19 21 23 26 30 31 30 28 25 22 20 20 20 20 20 16 12 10 9 8 7

GEFSCGP_con_prob3kmehi_288.txt.gz
EHI
0 0 0 0 0 0 0 0 0 0 0 0 0 1 3 4 2 3 8 11 11 12 13 13 11 11 19 31 36 35 33 32 28 23 19 18 18 17 16 17 19 21 23 22
0 0 0 0 0 0 0 0 0 0 0 0 0 1 3 4 3 3 6 10 12 14 17 17 14 14 21 33 40 39 36 33 30 25 21 18 16 14 14 18 21 22 23 23
0 0 0 0 0 0 0 0 0 0 0 0 0 1 3 4 3 2 4 8 13 17 20 21 20 20 25 35 41 42 40 37 33 28 24 20 18 15 16 20 24 24 23 24
0 0 0 0 0 0 0 0 0 0 0 0 0 1 3 4 3 3 4 7 12 16 19 22 25 25 27 32 38 43 44 41 35 29 25 23 22 21 20 21 24 24 24 25
0 0 0 0 0 0 0 0 0 0 0 0 0 0 2 3 4 5 7 8 10 15 18 22 26 28 27 28 35 43 47 43 37 31 26 23 23 23 21 22 23 23 24 27
0 0 0 0 0 0 0 0 0 0 0 0 0 0 1 3 5 7 9 9 11 15 20 24 27 29 27 28 35 45 48 45 38 33 29 26 24 23 22 22 24 24 24 26
0 0 0 0 0 0 0 0 0 0 0 0 0 1 2 4 5 6 8 9 11 16 23 27 29 30 29 30 38 46 49 45 38 34 31 30 29 28 25 24 25 25 24 23
0 0 0 0 0 0 0 0 0 1 0 0 0 1 3 4 4 6 9 10 11 15 22 28 30 31 31 33 39 46 49 45 38 35 35 34 34 32 28 26 25 25 25 25
0 0 0 0 0 0 0 0 0 0 0 0 0 2 4 4 4 6 11 13 13 13 19 26 32 34 35 37 41 45 47 45 41 39 39 38 38 34 29 26 26 26 28 29
0 0 0 0 0 0 0 0 0 0 0 0 0 2 4 6 5 7 11 15 17 17 20 26 32 36 37 38 42 44 47 48 46 43 42 41 41 38 31 28 27 27 29 31
0 0 0 0 0 0 0 0 0 0 0 0 0 1 4 6 6 8 12 18 23 24 25 28 30 32 31 32 37 40 45 49 49 47 46 45 44 43 39 35 32 31 33 35
0 0 0 0 0 0 0 0 0 0 0 0 1 1 3 5 8 11 16 22 27 30 30 30 30 30 29 30 32 35 41 45 46 48 50 49 48 47 45 42 38 38 39 40
0 0 1 0 0 0 0 0 0 0 0 0 1 1 1 3 7 12 18 24 30 33 34 35 36 37 37 35 34 34 38 40 42 45 47 48 49 49 47 46 44 43 43 42
0 0 0 0 0 0 0 0 0 0 0 0 0 1 2 3 6 12 18 25 32 37 39 40 44 49 49 45 41 39 40 42 42 42 43 46 48 48 46 45 46 45 41 39
0 0 0 0 0 0 0 0 0 0 0 0 1 3 4 5 9 14 21 26 33 39 42 46 54 60 60 56 52 48 47 49 48 46 46 48 48 46 44 44 45 44 40 35
0 0 0 0 0 0 0 0 0 0 0 1 3 5 7 10 15 22 25 28 32 37 43 50 59 65 67 65 62 57 53 52 52 50 50 49 47 45 43 42 42 42 38 35
0 0 0 0 0 0 0 0 0 0 1 2 4 7 10 14 22 28 30 30 31 35 42 51 58 63 65 65 63 59 53 50 51 50 48 46 44 43 41 38 38 38 35 32
0 0 0 0 0 0 0 0 1 2 3 4 7 10 13 16 23 29 33 33 34 37 43 49 52 54 56 58 59 56 51 48 48 47 46 43 41 40 37 34 34 34 30 27
0 0 0 0 0 0 1 1 3 4 6 10 13 15 16 16 19 27 34 38 42 44 47 47 46 47 50 55 59 58 52 47 46 46 45 42 39 36 34 32 32 30 26 24
0 0 0 0 0 1 3 3 4 6 9 14 20 21 21 21 23 30 37 42 47 50 50 49 47 47 51 57 62 60 52 46 45 44 44 41 36 33 32 33 32 29 25 22
0 0 0 0 0 2 5 6 7 11 16 21 24 26 27 30 33 37 40 43 46 50 50 49 49 49 51 55 59 57 50 45 43 43 42 39 34 30 30 31 30 27 23 20
0 0 0 1 3 6 10 12 15 19 24 27 28 29 32 35 38 40 41 41 42 45 46 47 48 48 49 51 52 50 46 44 44 43 41 38 33 29 26 27 27 25 21 19
1 2 2 4 7 12 16 19 21 23 26 27 27 29 32 34 35 37 38 39 39 40 42 45 47 47 47 46 45 43 42 43 44 43 41 37 32 28 26 26 26 23 21 19
4 4 5 8 9 11 15 19 21 22 24 24 25 27 31 31 30 28 30 34 38 38 38 41 44 44 42 41 41 40 40 41 40 39 37 33 30 28 28 27 25 22 20 19
6 7 8 10 9 7 9 13 17 19 21 23 25 29 31 29 24 19 20 27 34 35 35 36 39 39 35 34 35 36 37 38 38 35 32 28 27 25 24 23 21 19 17 15
6 8 10 11 10 8 8 10 12 15 18 22 26 30 31 27 21 16 17 22 29 32 34 35 36 34 30 28 30 31 34 38 39 36 30 25 23 23 21 18 17 15 12 9

GEFSCGP_con_prob3kmehi_294.txt.gz
EHI
0 0 0 0 0 0 0 0 0 0 0 0 0 0 0 1 2 5 7 10 12 9 6 5 8 15 18 16 13 11 11 13 12 9 6 5 4 3 1 0 0 1 6 10
0 0 0 0 0 0 0 0 0 0 0 0 0 0 0 0 1 4 7 9 11 10 7 6 10 16 18 15 13 11 11 14 14 12 8 5 4 3 1 1 1 2 5 8
0 0 0 0 0 0 0 0 0 0 0 0 0 0 0 0 1 3 5 8 11 10 8 9 13 17 18 16 14 12 13 15 16 14 11 8 5 3 2 2 2 2 4 6
0 0 0 0 0 0 0 0 0 0 0 0 0 0 0 0 1 3 5 7 10 10 10 11 14 17 19 19 17 15 15 17 17 15 13 10 7 5 3 3 3 3 3 4
0 0 0 0 0 0 0 0 0 0 0 0 0 0 0 0 1 2 4 6 8 11 12 13 14 17 20 22 22 20 20 20 20 18 15 12 9 6 5 4 3 3 3 3
0 0 0 0 0 0 0 0 0 0 0 0 0 0 0 0 0 1 2 4 6 10 13 14 14 17 21 25 28 27 26 25 24 22 18 15 12 9 8 7 6 5 5 4
0 0 0 0 0 0 0 0 0 0 0 0 0 0 0 0 0 0 2 3 5 9 13 15 16 18 22 27 32 33 32 30 28 26 23 20 16 13 12 11 10 9 8 6
0 0 0 0 0 0 0 0 0 0 0 0 0 0 0 1 1 1 2 4 5 8 13 16 17 18 23 28 32 34 33 30 29 29 25 21 18 16 15 15 14 12 10 8
0 0 0 0 0 0 0 0 0 0 0 0 0 0 1 2 4 4 4 6 7 10 15 19 18 18 22 27 30 32 31 28 28 29 27 22 18 15 14 14 13 11 10 9
0 0 0 0 0 0 0 0 0 0 0 0 0 0 1 4 7 7 7 9 11 13 17 21 21 19 21 23 25 27 28 27 28 30 29 25 20 16 14 13 10 9 10 10
0 0 0 0 0 0 0 0 0 0 0 0 0 1 2 5 7 9 9 11 13 15 17 20 22 21 21 22 22 24 28 29 30 31 31 28 23 19 17 15 11 9 10 9
0 0 0 0 0 1 0 0 0 0 0 0 0 1 3 5 7 8 8 9 12 15 16 19 21 22 24 25 25 26 30 32 32 33 33 31 26 22 21 20 15 12 11 11
0 0 0 0 0 0 0 0 0 0 0 0 0 1 2 5 6 7 7 9 12 15 16 18 19 21 24 26 28 30 32 32 33 35 35 34 30 25 24 24 20 15 13 14
0 0 0 0 0 0 0 0 0 0 0 0 0 0 1 4 6 7 8 10 14 16 18 19 19 19 23 26 29 33 34 33 33 35 36 34 31 28 26 26 24 19 15 14
0 0 0 0 0 0 0 0 0 0 0 1 1 1 1 4 6 8 10 13 16 17 18 19 18 18 23 25 27 31 33 34 34 35 35 32 29 27 26 26 25 20 15 12
0 0 0 0 0 0 0 0 0 0 1 2 3 3 3 5 6 9 12 15 16 18 19 19 18 20 23 25 26 27 29 30 31 33 33 30 27 26 25 24 23 19 14 11
0 0 0 0 0 0 0 1 1 1 2 4 6 8 9 9 10 11 12 14 16 18 20 20 20 21 23 25 26 26 27 26 26 28 29 30 29 27 25 23 21 17 14 13
0 0 0 0 0 0 0 1 2 2 4 6 9 13 15 16 17 17 16 18 18 19 21 21 21 22 24 25 27 29 29 27 25 25 27 30 31 28 24 21 18 15 13 13
0 0 0 0 0 0 0 1 1 3 4 7 12 16 17 19 22 22 22 24 24 23 24 23 22 25 27 28 30 32 31 28 26 26 26 29 31 28 23 19 16 14 12 11
0 0 0 0 0 0 0 0 1 2 3 6 11 14 17 18 19 20 23 27 28 27 26 25 25 28 30 29 29 31 29 27 25 24 25 26 27 27 23 19 16 15 13 11
0 0 0 0 0 0 0 0 0 1 2 5 8 12 14 16 16 18 21 26 30 29 28 28 27 29 28 25 24 25 25 24 22 22 23 23 23 22 21 19 17 15 14 12
0 0 0 0 0 0 0 0 0 1 4 7 9 12 14 15 16 19 22 25 27 27 27 28 29 27 25 22 20 19 20 21 21 21 22 21 19 18 19 19 17 16 14 13
0 1 1 1 0 1 1 1 1 3 7 10 12 13 15 16 17 20 21 21 21 23 24 25 26 25 21 18 15 14 15 17 18 20 21 20 18 18 18 18 18 16 14 13
1 2 3 3 2 3 3 3 4 7 10 11 12 13 14 14 15 16 16 16 16 17 18 19 19 19 16 13 10 8 9 13 15 17 20 19 18 18 18 19 19 17 15 14
1 3 5 5 4 4 5 5 7 10 12 11 11 12 11 9 9 10 11 12 13 14 13 13 12 12 13 12 10 8 8 10 13 15 18 18 18 17 18 18 18 15 13 12
1 3 6 7 6 5 4 5 8 10 11 11 10 10 9 5 4 6 9 10 11 11 11 8 8 10 12 13 11 9 9 10 11 14 16 18 18 17 17 17 15 11 9 9

GEFSCGP_con_prob3kmehi_300.txt.gz
EHI
0 0 0 0 0 0 0 0 0 0 0 0 0 0 1 2 4 4 3 3 3 3 4 5 6 6 4 2 1 0 0 0 1 2 1 1 0 0 0 0 0 0 1 1
0 0 0 0 0 0 0 0 0 0 0 0 0 0 0 1 3 3 3 3 3 2 3 5 7 6 5 4 3 2 1 1 3 4 3 2 1 0 0 0 0 0 0 1
0 0 0 0 0 0 0 0 0 0 0 0 0 0 0 0 1 2 3 3 3 3 3 6 8 8 8 8 7 5 3 3 5 6 5 3 2 0 0 0 0 0 0 0
0 0 0 0 0 0 0 0 0 0 0 0 0 0 0 0 0 1 3 3 4 4 4 6 7 8 9 9 9 8 6 5 5 6 5 4 2 0 0 0 0 0 0 0
0 0 0 0 0 0 0 0 0 0 0 0 0 0 0 0 0 1 2 4 4 5 5 5 6 7 8 8 9 9 7 6 6 7 7 6 4 1 0 0 0 0 1 1
0 0 0 0 0 0 0 0 0 0 0 0 0 0 0 0 0 1 3 3 4 4 4 4 5 5 6 7 8 8 8 8 8 9 8 7 5 2 0 0 1 2 3 3
0 0 0 0 0 0 0 0 0 0 0 0 0 0 1 2 1 2 3 3 3 4 4 3 4 5 6 8 9 9 9 10 10 10 9 8 6 3 1 1 2 4 5 5
0 0 0 0 0 0 0 0 0 0 0 0 0 0 1 2 3 3 3 4 4 4 4 3 3 4 7 9 11 12 12 13 12 11 11 10 9 6 3 2 3 4 4 4
0 0 0 0 0 0 0 0 0 0 0 0 0 0 1 2 3 5 5 4 4 4 3 3 3 4 6 9 12 13 15 15 15 13 12 12 12 10 6 4 3 2 2 1
0 0 0 0 0 0 0 0 0 0 0 0 0 0 0 0 2 4 4 3 3 3 3 3 3 3 5 8 10 13 16 17 17 15 14 13 13 11 8 6 3 2 2 1
0 0 0 0 0 0 0 0 0 0 0 0 0 0 0 0 0 1 1 1 2 3 4 3 2 2 5 7 10 12 15 17 16 16 15 14 14 12 10 9 7 4 3 3
0 0 0 0 0 0 0 0 0 0 0 0 0 0 0 1 1 1 1 1 3 4 4 3 3 4 7 9 10 11 14 16 17 16 16 17 15 13 11 10 9 7 5 4
0 0 0 0 0 0 0 0 0 0 0 0 0 0 1 2 3 3 2 2 4 5 5 4 5 7 8 10 11 12 13 16 18 18 18 18 16 13 11 9 9 8 6 5
0 0 0 0 0 0 0 0 0 0 0 0 0 0 1 3 4 5 4 3 5 7 7 7 7 7 7 9 11 12 12 14 14 15 17 18 16 14 12 10 8 7 6 6
0 0 0 0 0 0 0 0 0 0 0 0 0 0 1 3 5 6 5 3 5 7 8 9 8 7 6 7 8 9 9 10 11 13 15 17 17 16 13 10 8 6 5 5
0 0 0 0 0 0 0 0 0 0 0 0 0 0 1 4 6 7 6 4 4 6 8 9 9 8 7 7 7 7 6 9 12 15 17 18 18 16 11 8 7 6 6 5
0 0 0 0 0 0 0 0 0 0 0 0 0 1 2 4 6 6 5 5 6 7 9 9 8 8 8 8 6 5 6 10 15 17 17 17 16 13 10 9 9 9 9 8
0 0 0 0 0 0 0 0 0 0 0 0 0 1 3 5 5 4 2 4 8 11 12 10 7 6 7 8 7 6 9 13 16 17 15 13 11 10 11 12 13 13 12 11
0 0 0 0 0 0 0 0 0 0 0 0 1 2 4 6 5 2 1 4 8 12 13 12 9 6 7 8 8 8 10 13 15 15 12 9 8 9 11 14 15 15 12 10
0 0 0 0 0 0 0 0 0 0 0 0 2 3 5 6 4 3 2 4 6 9 10 11 12 10 8 7 9 9 9 10 11 11 10 9 9 9 12 13 15 15 12 9
0 0 0 0 0 0 0 0 0 0 0 1 3 5 7 6 4 3 3 4 5 6 8 9 11 10 7 6 7 9 8 7 7 8 9 10 11 11 12 14 15 15 13 9
0 0 0 0 0 0 0 0 0 0 1 2 5 6 7 6 4 4 4 6 7 7 7 7 7 7 6 4 5 6 7 6 6 7 8 10 12 13 14 14 15 15 14 11
0 0 0 0 0 0 0 0 0 0 1 3 5 5 4 4 3 4 6 8 9 7 6 5 5 6 6 5 4 4 5 6 7 7 7 9 12 13 15 15 15 15 15 13
0 0 0 0 0 1 1 1 1 2 3 4 4 3 1 1 2 3 5 6 7 6 5 5 5 7 7 6 5 4 4 5 7 7 7 7 9 12 14 14 14 15 14 13
0 0 0 0 0 2 2 2 2 4 5 5 3 1 0 0 1 2 2 3 4 5 5 5 4 5 6 5 5 5 3 4 5 6 6 6 8 10 12 13 13 13 13 12
0 0 0 0 0 1 2 1 2 4 6 5 3 1 0 0 0 1 0 1 2 4 5 5 4 4 4 3 4 4 2 3 4 6 6 6 8 10 12 11 11 11 11 10